Simultaneous Nadir Overpasses (SNOs) Predictions

Prediction of SNOs between GOES-15 and FY3D Satellite Orbit:

Table of predicted SNOs for the next 14.0 days since TLE Epoch: 10/22/2022
Index Date Time (GOES-15) GOES-15 Lat,Lon FY3D Lat,Lon Distance(km) Time Diff (sec)
1 10/22/2022 10:20:38 0.17,-128.45 -0.33,-126.25 250.79 80
2 10/23/2022 22:40:22 -0.14,-128.38 -0.87,-131.65 372.76 80
3 10/24/2022 22:24:36 -0.16,-128.38 0.11,-127.18 136.78 80
4 10/26/2022 10:44:13 0.13,-128.46 1.07,-132.56 467.09 80
5 10/27/2022 10:28:27 0.15,-128.46 0.09,-128.09 41.76 80
6 10/29/2022 22:29:45 -0.13,-128.36 -0.30,-129.02 75.64 80
7 10/30/2022 22:13:59 -0.14,-128.35 0.74,-124.56 432.57 80
8 11/01/2022 10:33:35 0.11,-128.42 0.48,-129.93 172.88 80
9 11/02/2022 10:17:49 0.12,-128.40 -0.51,-125.46 335.03 80
10 11/03/2022 22:37:33 -0.09,-128.30 -0.68,-130.86 291.69 80
11 11/04/2022 22:21:47 -0.11,-128.29 0.31,-126.39 216.47 80
